| time (UTC) | temp F | wind direction | speed MPH | gust MPH | rain 1hr in | rain 24hr in | rain mn in | humidity % | barometer mb |
| 20260502184831 | 63 | 313 | 0.0 | 2.0 | 0.00 | 0.00 | 0.00 | 32 | 1020.4 |
| 20260502184326 | 62 | 173 | 1.0 | 1.0 | 0.00 | 0.00 | 0.00 | 32 | 1020.5 |
| 20260502183823 | 61 | 175 | 0.0 | 0.0 | 0.00 | 0.00 | 0.00 | 34 | 1020.3 |
| 20260502183319 | 61 | 81 | 1.0 | 2.0 | 0.00 | 0.00 | 0.00 | 29 | 1020.5 |
| 20260502182814 | 63 | 55 | 2.0 | 3.0 | 0.00 | 0.00 | 0.00 | 29 | 1020.5 |
| 20260502182310 | 63 | 357 | 2.0 | 5.0 | 0.00 | 0.00 | 0.00 | 31 | 1020.5 |
| 20260502181807 | 62 | 140 | 0.0 | 1.0 | 0.00 | 0.00 | 0.00 | 32 | 1020.8 |
| 20260502181306 | 64 | 148 | 4.0 | 5.0 | 0.00 | 0.00 | 0.00 | 30 | 1020.6 |
| 20260502180803 | 62 | 196 | 0.0 | 0.0 | 0.00 | 0.00 | 0.00 | 33 | 1020.8 |
| 20260502180300 | 63 | 89 | 1.0 | 2.0 | 0.00 | 0.00 | 0.00 | 31 | 1020.8 |
| 20260502170219 | 61 | 87 | 3.0 | 5.0 | 0.00 | 0.00 | 0.00 | 34 | 1021.0 |
| 20260502164207 | 61 | 149 | 1.0 | 1.0 | 0.00 | 0.00 | 0.00 | 39 | 1021.1 |
| 20260502163702 | 61 | 138 | 1.0 | 1.0 | 0.00 | 0.00 | 0.00 | 34 | 1021.3 |
| 20260502163159 | 59 | 59 | 1.0 | 2.0 | 0.00 | 0.00 | 0.00 | 38 | 1021.3 |
| 20260502162656 | 59 | 47 | 6.0 | 8.0 | 0.00 | 0.00 | 0.00 | 37 | 1021.2 |
| 20260502162153 | 60 | 60 | 1.0 | 1.0 | 0.00 | 0.00 | 0.00 | 37 | 1021.1 |
| 20260502161650 | 59 | 136 | 0.0 | 0.0 | 0.00 | 0.00 | 0.00 | 40 | 1021.1 |
| 20260502161146 | 60 | 124 | 1.0 | 1.0 | 0.00 | 0.00 | 0.00 | 38 | 1021.2 |
| 20260502160645 | 60 | 159 | 1.0 | 2.0 | 0.00 | 0.00 | 0.00 | 38 | 1021.1 |
| 20260502160144 | 58 | 180 | 0.0 | 1.0 | 0.00 | 0.00 | 0.00 | 40 | 1021.1 |
| 20260502152103 | 58 | 88 | 1.0 | 1.0 | 0.00 | 0.00 | 0.00 | 44 | 1021.3 |
| 20260502151600 | 56 | 165 | 0.0 | 1.0 | 0.00 | 0.00 | 0.00 | 48 | 1021.2 |
| 20260502151058 | 56 | 59 | 6.0 | 7.0 | 0.00 | 0.00 | 0.00 | 44 | 1021.4 |
| 20260502150555 | 56 | 134 | 0.0 | 1.0 | 0.00 | 0.00 | 0.00 | 46 | 1021.5 |
| 20260502130440 | 42 | 171 | 0.0 | 0.0 | 0.00 | 0.00 | 0.00 | 85 | 1020.9 |
| 20260502123422 | 39 | 171 | 0.0 | 0.0 | 0.00 | 0.00 | 0.00 | 92 | 1020.9 |
| 20260502122920 | 38 | 171 | 0.0 | 0.0 | 0.00 | 0.00 | 0.00 | 92 | 1020.9 |
| 20260502122416 | 38 | 171 | 0.0 | 0.0 | 0.00 | 0.00 | 0.00 | 93 | 1020.7 |
| 20260502121914 | 38 | 171 | 0.0 | 0.0 | 0.00 | 0.00 | 0.00 | 93 | 1020.6 |
| 20260502121411 | 37 | 171 | 0.0 | 0.0 | 0.00 | 0.00 | 0.00 | 93 | 1020.5 |
| 20260502120909 | 37 | 171 | 0.0 | 0.0 | 0.00 | 0.00 | 0.00 | 93 | 1020.4 |
| 20260502120404 | 37 | 171 | 0.0 | 0.0 | 0.00 | 0.00 | 0.00 | 93 | 1020.3 |
| 20260502115902 | 37 | 171 | 0.0 | 0.0 | 0.00 | 0.00 | 0.00 | 93 | 1020.2 |
| 20260502115359 | 37 | 171 | 0.0 | 0.0 | 0.00 | 0.00 | 0.00 | 92 | 1020.2 |
| 20260502114854 | 37 | 171 | 0.0 | 0.0 | 0.00 | 0.00 | 0.00 | 92 | 1020.1 |
| 20260502114352 | 37 | 171 | 0.0 | 0.0 | 0.00 | 0.00 | 0.00 | 92 | 1020.3 |
| 20260502113849 | 37 | 171 | 0.0 | 0.0 | 0.00 | 0.00 | 0.00 | 92 | 1020.0 |
| 20260502113346 | 37 | 171 | 0.0 | 0.0 | 0.00 | 0.00 | 0.00 | 92 | 1020.0 |
| 20260502112845 | 36 | 171 | 0.0 | 0.0 | 0.00 | 0.00 | 0.00 | 92 | 1020.0 |
| 20260502112342 | 37 | 171 | 0.0 | 0.0 | 0.00 | 0.00 | 0.00 | 92 | 1020.0 |
| 20260502111839 | 37 | 171 | 0.0 | 0.0 | 0.00 | 0.00 | 0.00 | 91 | 1020.0 |
| 20260502111337 | 37 | 171 | 0.0 | 0.0 | 0.00 | 0.00 | 0.00 | 91 | 1019.7 |
| 20260502110834 | 36 | 171 | 0.0 | 0.0 | 0.00 | 0.00 | 0.00 | 91 | 1019.9 |
| 20260502110332 | 37 | 171 | 0.0 | 0.0 | 0.00 | 0.00 | 0.00 | 91 | 1019.9 |
| 20260502105829 | 37 | 171 | 0.0 | 0.0 | 0.00 | 0.00 | 0.00 | 91 | 1019.7 |
| 20260502105326 | 37 | 171 | 0.0 | 0.0 | 0.00 | 0.00 | 0.00 | 90 | 1019.9 |
| 20260502104824 | 37 | 171 | 0.0 | 0.0 | 0.00 | 0.00 | 0.00 | 90 | 1019.9 |
| 20260502104321 | 37 | 171 | 0.0 | 0.0 | 0.00 | 0.00 | 0.00 | 90 | 1019.9 |
| 20260502103818 | 37 | 171 | 0.0 | 0.0 | 0.00 | 0.00 | 0.00 | 90 | 1019.9 |
| 20260502103315 | 37 | 171 | 0.0 | 0.0 | 0.00 | 0.00 | 0.00 | 90 | 1019.7 |
| 20260502102813 | 37 | 171 | 0.0 | 0.0 | 0.00 | 0.00 | 0.00 | 90 | 1019.6 |
| 20260502102308 | 37 | 171 | 0.0 | 0.0 | 0.00 | 0.00 | 0.00 | 89 | 1019.7 |
| 20260502101807 | 38 | 171 | 0.0 | 0.0 | 0.00 | 0.00 | 0.00 | 89 | 1019.4 |
| 20260502101304 | 38 | 171 | 0.0 | 0.0 | 0.00 | 0.00 | 0.00 | 88 | 1019.4 |
| 20260502100803 | 38 | 171 | 0.0 | 0.0 | 0.00 | 0.00 | 0.00 | 88 | 1019.4 |
| 20260502100302 | 38 | 171 | 0.0 | 0.0 | 0.00 | 0.00 | 0.00 | 87 | 1019.6 |
| 20260502091235 | 39 | 171 | 0.0 | 0.0 | 0.00 | 0.00 | 0.00 | 82 | 1019.1 |
| 20260502090733 | 40 | 171 | 0.0 | 0.0 | 0.00 | 0.00 | 0.00 | 81 | 1019.1 |
| 20260502090229 | 40 | 171 | 0.0 | 0.0 | 0.00 | 0.00 | 0.00 | 81 | 1019.0 |
| 20260502071130 | 44 | 171 | 0.0 | 0.0 | 0.00 | 0.00 | 0.00 | 65 | 1018.6 |
| 20260502070628 | 44 | 171 | 0.0 | 0.0 | 0.00 | 0.00 | 0.00 | 64 | 1018.7 |
| 20260502070126 | 44 | 171 | 0.0 | 0.0 | 0.00 | 0.00 | 0.00 | 64 | 1018.7 |
| 20260502065624 | 45 | 171 | 0.0 | 0.0 | 0.00 | 0.00 | 0.00 | 63 | 1018.7 |
| 20260502065121 | 45 | 171 | 0.0 | 0.0 | 0.00 | 0.00 | 0.00 | 63 | 1018.5 |
| 20260502064620 | 45 | 171 | 0.0 | 0.0 | 0.00 | 0.00 | 0.00 | 62 | 1018.6 |
| 20260502064116 | 46 | 171 | 0.0 | 0.0 | 0.00 | 0.00 | 0.00 | 62 | 1018.6 |
| 20260502063614 | 46 | 168 | 0.0 | 0.0 | 0.00 | 0.00 | 0.00 | 60 | 1018.6 |
| 20260502063112 | 46 | 169 | 1.0 | 1.0 | 0.00 | 0.00 | 0.00 | 60 | 1018.5 |
| 20260502062609 | 46 | 162 | 0.0 | 0.0 | 0.00 | 0.00 | 0.00 | 59 | 1018.6 |
| 20260502062106 | 47 | 161 | 0.0 | 0.0 | 0.00 | 0.00 | 0.00 | 59 | 1018.7 |
| 20260502061604 | 47 | 161 | 0.0 | 0.0 | 0.00 | 0.00 | 0.00 | 55 | 1018.5 |
| 20260502061101 | 48 | 161 | 0.0 | 0.0 | 0.00 | 0.00 | 0.00 | 55 | 1018.6 |
| 20260502060556 | 49 | 161 | 0.0 | 0.0 | 0.00 | 0.00 | 0.00 | 55 | 1018.6 |
| 20260502060053 | 49 | 148 | 0.0 | 0.0 | 0.00 | 0.00 | 0.00 | 52 | 1018.6 |
| 20260502055551 | 50 | 161 | 0.0 | 0.0 | 0.00 | 0.00 | 0.00 | 50 | 1018.5 |
| 20260502055049 | 50 | 128 | 0.0 | 0.0 | 0.00 | 0.00 | 0.00 | 49 | 1018.6 |
| 20260502054548 | 50 | 125 | 0.0 | 1.0 | 0.00 | 0.00 | 0.00 | 49 | 1018.5 |
| 20260502054044 | 51 | 139 | 0.0 | 0.0 | 0.00 | 0.00 | 0.00 | 48 | 1018.4 |
| 20260502053541 | 51 | 143 | 0.0 | 0.0 | 0.00 | 0.00 | 0.00 | 48 | 1018.6 |
| 20260502053039 | 51 | 135 | 0.0 | 0.0 | 0.00 | 0.00 | 0.00 | 47 | 1018.7 |
| 20260502052537 | 51 | 136 | 0.0 | 1.0 | 0.00 | 0.00 | 0.00 | 47 | 1018.3 |
| 20260502052035 | 51 | 132 | 0.0 | 0.0 | 0.00 | 0.00 | 0.00 | 46 | 1018.3 |
| 20260502051533 | 51 | 133 | 0.0 | 0.0 | 0.00 | 0.00 | 0.00 | 45 | 1018.4 |
| 20260502051030 | 52 | 136 | 0.0 | 0.0 | 0.00 | 0.00 | 0.00 | 47 | 1018.4 |
| 20260502050526 | 52 | 131 | 0.0 | 0.0 | 0.00 | 0.00 | 0.00 | 46 | 1018.5 |
| 20260502050024 | 52 | 120 | 0.0 | 1.0 | 0.00 | 0.00 | 0.00 | 47 | 1018.4 |
| 20260502045520 | 52 | 124 | 0.0 | 0.0 | 0.00 | 0.00 | 0.00 | 46 | 1018.3 |
| 20260502045017 | 52 | 120 | 1.0 | 1.0 | 0.00 | 0.00 | 0.00 | 45 | 1018.5 |
| 20260502044514 | 53 | 135 | 0.0 | 0.0 | 0.00 | 0.00 | 0.00 | 45 | 1018.7 |
| 20260502044010 | 53 | 140 | 0.0 | 0.0 | 0.00 | 0.00 | 0.00 | 45 | 1018.4 |
| 20260502043508 | 53 | 154 | 0.0 | 0.0 | 0.00 | 0.00 | 0.00 | 45 | 1018.6 |
| 20260502043004 | 52 | 136 | 1.0 | 1.0 | 0.00 | 0.00 | 0.00 | 46 | 1018.4 |
| 20260502042459 | 52 | 142 | 1.0 | 1.0 | 0.00 | 0.00 | 0.00 | 47 | 1018.2 |
| 20260502041957 | 51 | 112 | 1.0 | 2.0 | 0.00 | 0.00 | 0.00 | 51 | 1018.6 |
| 20260502041455 | 50 | 139 | 0.0 | 0.0 | 0.00 | 0.00 | 0.00 | 53 | 1018.4 |
| 20260502040951 | 49 | 130 | 0.0 | 0.0 | 0.00 | 0.00 | 0.00 | 57 | 1018.3 |
| 20260502040448 | 48 | 131 | 0.0 | 0.0 | 0.00 | 0.00 | 0.00 | 62 | 1018.4 |
| 20260502035944 | 48 | 131 | 0.0 | 0.0 | 0.00 | 0.00 | 0.00 | 65 | 1018.2 |
| 20260502035440 | 48 | 132 | 0.0 | 0.0 | 0.00 | 0.00 | 0.00 | 66 | 1018.4 |
| 20260502034938 | 48 | 132 | 0.0 | 0.0 | 0.00 | 0.00 | 0.00 | 65 | 1018.2 |
| 20260502034436 | 48 | 132 | 0.0 | 0.0 | 0.00 | 0.00 | 0.00 | 64 | 1018.1 |
| 20260502033934 | 49 | 132 | 0.0 | 0.0 | 0.00 | 0.00 | 0.00 | 64 | 1018.4 |
| 20260502033432 | 49 | 132 | 0.0 | 0.0 | 0.00 | 0.00 | 0.00 | 63 | 1018.2 |
| 20260502032928 | 49 | 132 | 0.0 | 0.0 | 0.00 | 0.00 | 0.00 | 60 | 1018.0 |
| 20260502032425 | 49 | 132 | 0.0 | 0.0 | 0.00 | 0.00 | 0.00 | 61 | 1017.8 |
| 20260502031922 | 50 | 132 | 0.0 | 0.0 | 0.00 | 0.00 | 0.00 | 61 | 1018.1 |
| 20260502031421 | 50 | 132 | 0.0 | 0.0 | 0.00 | 0.00 | 0.00 | 60 | 1018.0 |
| 20260502030918 | 50 | 132 | 0.0 | 0.0 | 0.00 | 0.00 | 0.00 | 60 | 1017.9 |
| 20260502030416 | 51 | 132 | 0.0 | 0.0 | 0.00 | 0.00 | 0.00 | 60 | 1017.8 |
| 20260502025914 | 51 | 132 | 0.0 | 0.0 | 0.00 | 0.00 | 0.00 | 58 | 1017.6 |
| 20260502025411 | 51 | 132 | 0.0 | 0.0 | 0.00 | 0.00 | 0.00 | 59 | 1017.7 |
| 20260502024909 | 52 | 132 | 0.0 | 0.0 | 0.00 | 0.00 | 0.00 | 58 | 1017.8 |
| 20260502024407 | 52 | 132 | 0.0 | 0.0 | 0.00 | 0.00 | 0.00 | 56 | 1017.7 |
| 20260502023904 | 53 | 132 | 0.0 | 0.0 | 0.00 | 0.00 | 0.00 | 55 | 1017.5 |
| 20260502023401 | 53 | 132 | 0.0 | 0.0 | 0.00 | 0.00 | 0.00 | 54 | 1017.6 |
| 20260502022859 | 54 | 132 | 0.0 | 0.0 | 0.00 | 0.00 | 0.00 | 51 | 1017.2 |
| 20260502022355 | 55 | 131 | 0.0 | 0.0 | 0.00 | 0.00 | 0.00 | 48 | 1017.3 |
| 20260502021852 | 56 | 131 | 0.0 | 0.0 | 0.00 | 0.00 | 0.00 | 46 | 1017.3 |
| 20260502021349 | 56 | 131 | 0.0 | 0.0 | 0.00 | 0.00 | 0.00 | 46 | 1017.2 |
| 20260502020847 | 57 | 131 | 0.0 | 0.0 | 0.00 | 0.00 | 0.00 | 43 | 1017.1 |
| 20260502020344 | 57 | 135 | 0.0 | 0.0 | 0.00 | 0.00 | 0.00 | 43 | 1016.9 |
| 20260502015841 | 57 | 125 | 0.0 | 1.0 | 0.00 | 0.00 | 0.00 | 42 | 1016.8 |
| 20260502015338 | 58 | 130 | 0.0 | 1.0 | 0.00 | 0.00 | 0.00 | 41 | 1016.6 |
| 20260502014835 | 58 | 128 | 0.0 | 0.0 | 0.00 | 0.00 | 0.00 | 41 | 1016.6 |
| 20260502014332 | 58 | 108 | 0.0 | 1.0 | 0.00 | 0.00 | 0.00 | 40 | 1016.7 |
| 20260502013828 | 59 | 129 | 0.0 | 0.0 | 0.00 | 0.00 | 0.00 | 39 | 1016.7 |
| 20260502013324 | 59 | 110 | 1.0 | 1.0 | 0.00 | 0.00 | 0.00 | 39 | 1016.5 |
| 20260502012821 | 59 | 113 | 0.0 | 0.0 | 0.00 | 0.00 | 0.00 | 38 | 1016.4 |
| 20260502012319 | 59 | 122 | 0.0 | 1.0 | 0.00 | 0.00 | 0.00 | 38 | 1016.2 |
| 20260502011816 | 59 | 132 | 0.0 | 0.0 | 0.00 | 0.00 | 0.00 | 39 | 1016.4 |
| 20260502011312 | 60 | 114 | 1.0 | 1.0 | 0.00 | 0.00 | 0.00 | 38 | 1016.2 |
| 20260502010809 | 60 | 111 | 1.0 | 1.0 | 0.00 | 0.00 | 0.00 | 37 | 1015.9 |
| 20260502010305 | 60 | 115 | 1.0 | 1.0 | 0.00 | 0.00 | 0.00 | 37 | 1015.9 |
| 20260502005803 | 61 | 125 | 0.0 | 0.0 | 0.00 | 0.00 | 0.00 | 37 | 1015.6 |
| 20260502005301 | 61 | 103 | 0.0 | 0.0 | 0.00 | 0.00 | 0.00 | 36 | 1015.7 |
| 20260502004757 | 61 | 147 | 1.0 | 1.0 | 0.00 | 0.00 | 0.00 | 35 | 1015.7 |
| 20260502004253 | 61 | 104 | 2.0 | 2.0 | 0.00 | 0.00 | 0.00 | 36 | 1015.7 |
| 20260502003752 | 62 | 117 | 0.0 | 1.0 | 0.00 | 0.00 | 0.00 | 35 | 1015.7 |
| 20260502003248 | 62 | 163 | 0.0 | 1.0 | 0.00 | 0.00 | 0.00 | 35 | 1015.5 |
| 20260502002743 | 62 | 250 | 3.0 | 3.0 | 0.00 | 0.00 | 0.00 | 34 | 1015.5 |
| 20260502002242 | 62 | 95 | 0.0 | 1.0 | 0.00 | 0.00 | 0.00 | 33 | 1015.6 |
| 20260502001739 | 62 | 187 | 0.0 | 0.0 | 0.00 | 0.00 | 0.00 | 33 | 1015.6 |
| 20260502001237 | 63 | 88 | 2.0 | 2.0 | 0.00 | 0.00 | 0.00 | 32 | 1015.2 |
| 20260502000735 | 63 | 149 | 2.0 | 5.0 | 0.00 | 0.00 | 0.00 | 32 | 1015.4 |
| 20260502000233 | 63 | 101 | 1.0 | 2.0 | 0.00 | 0.00 | 0.00 | 32 | 1015.3 |
| 20260501235732 | 64 | 88 | 1.0 | 2.0 | 0.00 | 0.00 | 0.00 | 33 | 1015.0 |
| 20260501235228 | 64 | 131 | 0.0 | 1.0 | 0.00 | 0.00 | 0.00 | 32 | 1015.3 |
| 20260501234725 | 64 | 47 | 3.0 | 5.0 | 0.00 | 0.00 | 0.00 | 31 | 1015.2 |
| 20260501234222 | 64 | 63 | 2.0 | 2.0 | 0.00 | 0.00 | 0.00 | 32 | 1015.3 |
| 20260501233720 | 64 | 59 | 2.0 | 3.0 | 0.00 | 0.00 | 0.00 | 31 | 1015.2 |
| 20260501233218 | 65 | 349 | 3.0 | 6.0 | 0.00 | 0.00 | 0.00 | 30 | 1015.2 |
| 20260501232713 | 65 | 154 | 2.0 | 2.0 | 0.00 | 0.00 | 0.00 | 30 | 1015.1 |
| 20260501232210 | 64 | 171 | 1.0 | 2.0 | 0.00 | 0.00 | 0.00 | 31 | 1015.3 |
| 20260501231708 | 64 | 28 | 1.0 | 6.0 | 0.00 | 0.00 | 0.00 | 30 | 1015.3 |
| 20260501231206 | 64 | 126 | 0.0 | 1.0 | 0.00 | 0.00 | 0.00 | 31 | 1015.2 |
| 20260501230704 | 64 | 100 | 1.0 | 1.0 | 0.00 | 0.00 | 0.00 | 31 | 1014.9 |
| 20260501230202 | 64 | 133 | 1.0 | 2.0 | 0.00 | 0.00 | 0.00 | 31 | 1015.0 |
| 20260501225659 | 64 | 121 | 1.0 | 1.0 | 0.00 | 0.00 | 0.00 | 30 | 1015.1 |
| 20260501225156 | 66 | 69 | 3.0 | 5.0 | 0.00 | 0.00 | 0.00 | 28 | 1015.2 |
| 20260501224652 | 67 | 60 | 2.0 | 2.0 | 0.00 | 0.00 | 0.00 | 28 | 1015.1 |
| 20260501224150 | 66 | 94 | 0.0 | 0.0 | 0.00 | 0.00 | 0.00 | 30 | 1015.1 |
| 20260501223646 | 66 | 126 | 0.0 | 0.0 | 0.00 | 0.00 | 0.00 | 29 | 1015.1 |
| 20260501223143 | 65 | 97 | 2.0 | 3.0 | 0.00 | 0.00 | 0.00 | 29 | 1015.2 |
| 20260501222638 | 66 | 69 | 3.0 | 5.0 | 0.00 | 0.00 | 0.00 | 29 | 1015.3 |
| 20260501222136 | 65 | 32 | 5.0 | 7.0 | 0.00 | 0.00 | 0.00 | 28 | 1015.2 |
| 20260501221633 | 64 | 161 | 0.0 | 1.0 | 0.00 | 0.00 | 0.00 | 30 | 1015.2 |
| 20260501221130 | 65 | 160 | 2.0 | 3.0 | 0.00 | 0.00 | 0.00 | 30 | 1015.3 |
| 20260501220628 | 67 | 50 | 2.0 | 3.0 | 0.00 | 0.00 | 0.00 | 31 | 1015.5 |
| 20260501220124 | 67 | 56 | 5.0 | 6.0 | 0.00 | 0.00 | 0.00 | 29 | 1015.3 |
| 20260501215621 | 67 | 47 | 7.0 | 9.0 | 0.00 | 0.00 | 0.00 | 27 | 1015.2 |
| 20260501215116 | 67 | 12 | 5.0 | 5.0 | 0.00 | 0.00 | 0.00 | 29 | 1015.5 |
| 20260501214612 | 67 | 6 | 3.0 | 3.0 | 0.00 | 0.00 | 0.00 | 30 | 1015.4 |
| 20260501214107 | 66 | 107 | 1.0 | 2.0 | 0.00 | 0.00 | 0.00 | 32 | 1015.5 |
| 20260501213604 | 66 | 160 | 1.0 | 1.0 | 0.00 | 0.00 | 0.00 | 33 | 1015.7 |
| 20260501213100 | 66 | 359 | 4.0 | 5.0 | 0.00 | 0.00 | 0.00 | 33 | 1015.7 |
| 20260501212557 | 66 | 59 | 2.0 | 3.0 | 0.00 | 0.00 | 0.00 | 34 | 1016.0 |
| 20260501212054 | 64 | 22 | 5.0 | 7.0 | 0.00 | 0.00 | 0.00 | 35 | 1015.9 |
| 20260501211551 | 63 | 61 | 2.0 | 5.0 | 0.00 | 0.00 | 0.00 | 37 | 1016.2 |
| 20260501211049 | 63 | 161 | 1.0 | 1.0 | 0.00 | 0.00 | 0.00 | 37 | 1016.2 |
| 20260501210545 | 63 | 357 | 2.0 | 5.0 | 0.00 | 0.00 | 0.00 | 35 | 1016.4 |
| 20260501210042 | 64 | 3 | 2.0 | 3.0 | 0.00 | 0.00 | 0.00 | 35 | 1016.4 |
| 20260501205538 | 65 | 44 | 3.0 | 5.0 | 0.00 | 0.00 | 0.00 | 31 | 1016.2 |
| 20260501205036 | 66 | 161 | 0.0 | 0.0 | 0.00 | 0.00 | 0.00 | 34 | 1016.3 |
| 20260501204532 | 66 | 131 | 0.0 | 1.0 | 0.00 | 0.00 | 0.00 | 34 | 1016.4 |
| 20260501204028 | 64 | 72 | 5.0 | 6.0 | 0.00 | 0.00 | 0.00 | 33 | 1016.6 |
| 20260501203525 | 64 | 357 | 0.0 | 2.0 | 0.00 | 0.00 | 0.00 | 33 | 1016.5 |
| 20260501203023 | 64 | 43 | 0.0 | 1.0 | 0.00 | 0.00 | 0.00 | 34 | 1016.5 |
| 20260501202519 | 65 | 147 | 0.0 | 0.0 | 0.00 | 0.00 | 0.00 | 35 | 1016.4 |
| 20260501202016 | 65 | 137 | 1.0 | 1.0 | 0.00 | 0.00 | 0.00 | 34 | 1016.5 |
| 20260501201513 | 65 | 148 | 2.0 | 2.0 | 0.00 | 0.00 | 0.00 | 34 | 1016.6 |
| 20260501201009 | 65 | 187 | 0.0 | 1.0 | 0.00 | 0.00 | 0.00 | 33 | 1016.8 |
| 20260501200507 | 64 | 298 | 2.0 | 2.0 | 0.00 | 0.00 | 0.00 | 34 | 1016.9 |
| 20260501200004 | 64 | 194 | 1.0 | 1.0 | 0.00 | 0.00 | 0.00 | 32 | 1017.0 |
| 20260501195501 | 64 | 95 | 1.0 | 1.0 | 0.00 | 0.00 | 0.00 | 34 | 1016.8 |
| 20260501194956 | 64 | 71 | 5.0 | 6.0 | 0.00 | 0.00 | 0.00 | 34 | 1017.3 |
| 20260501194452 | 64 | 126 | 0.0 | 0.0 | 0.00 | 0.00 | 0.00 | 34 | 1017.2 |
| 20260501193948 | 65 | 82 | 1.0 | 1.0 | 0.00 | 0.00 | 0.00 | 33 | 1017.4 |
| 20260501193446 | 65 | 186 | 1.0 | 1.0 | 0.00 | 0.00 | 0.00 | 33 | 1017.1 |
| 20260501192944 | 65 | 12 | 2.0 | 2.0 | 0.00 | 0.00 | 0.00 | 35 | 1017.4 |
| 20260501192441 | 64 | 272 | 2.0 | 3.0 | 0.00 | 0.00 | 0.00 | 33 | 1017.3 |
| 20260501191938 | 64 | 86 | 0.0 | 0.0 | 0.00 | 0.00 | 0.00 | 36 | 1017.2 |
| 20260501191435 | 64 | 6 | 4.0 | 6.0 | 0.00 | 0.00 | 0.00 | 34 | 1017.3 |
| 20260501190932 | 64 | 36 | 4.0 | 6.0 | 0.00 | 0.00 | 0.00 | 32 | 1017.3 |
| 20260501190428 | 64 | 188 | 0.0 | 1.0 | 0.00 | 0.00 | 0.00 | 32 | 1017.4 |
| 20260501185923 | 65 | 85 | 1.0 | 2.0 | 0.00 | 0.00 | 0.00 | 33 | 1017.2 |
| 20260501185420 | 65 | 106 | 1.0 | 2.0 | 0.00 | 0.00 | 0.00 | 32 | 1017.4 |